This is the latest recevied weather packets stored in our database for station/object KG5TTF. If no packets are shown the sender has not sent any weather packets the latest 10 day(s).
| Time | Temp. | Humidity | Pressure | Rain* | Wind** | Luminosity | Snow |
|---|---|---|---|---|---|---|---|
| 1777938782 | 14.44° C | 36% | 1014.2 hPa | 0 mm | - | 98 W/m² | - |
| 1777938479 | 13.89° C | 37% | 1014.3 hPa | 0 mm | - | 105 W/m² | - |
| 1777938177 | 13.89° C | 37% | 1014.3 hPa | 0 mm | - | 91 W/m² | - |
| 1777937873 | 13.89° C | 40% | 1014.3 hPa | 0 mm | - | 92 W/m² | - |
| 1777937569 | 14.44° C | 40% | 1014.3 hPa | 0 mm | - | 109 W/m² | - |
| 1777937267 | 14.44° C | 35% | 1014 hPa | 0 mm | - | 93 W/m² | - |
| 1777936963 | 14.44° C | 34% | 1014.2 hPa | 0 mm | - | 80 W/m² | - |
| 1777936660 | 15° C | 34% | 1013.8 hPa | 0 mm | - | 75 W/m² | - |
| 1777936356 | 15° C | 34% | 1013.5 hPa | 0 mm | - | 98 W/m² | - |
| 1777936052 | 15° C | 34% | 1013.2 hPa | 0 mm | - | 113 W/m² | - |
| 1777935751 | 15° C | 34% | 1013.2 hPa | 0 mm | - | 105 W/m² | - |
| 1777935450 | 15° C | 34% | 1013.1 hPa | 0 mm | - | 99 W/m² | - |
| 1777935145 | 15° C | 34% | 1013 hPa | 0 mm | - | 107 W/m² | - |
| 1777934843 | 15.56° C | 33% | 1013.1 hPa | 0 mm | - | 86 W/m² | - |
| 1777934540 | 16.11° C | 31% | 1012.9 hPa | 0 mm | - | 79 W/m² | - |
| 1777934236 | 17.22° C | 28% | 1012.9 hPa | 0 mm | - | 99 W/m² | - |
| 1777933931 | 17.78° C | 25% | 1012.9 hPa | 0 mm | - | 117 W/m² | - |
| 1777933629 | 17.78° C | 24% | 1013 hPa | 0 mm | - | 177 W/m² | - |
| 1777933326 | 17.22° C | 24% | 1012.7 hPa | 0 mm | - | 204 W/m² | - |
| 1777933023 | 17.78° C | 25% | 1012.7 hPa | 0 mm | - | 223 W/m² | - |
| 1777932720 | 17.22° C | 25% | 1012.7 hPa | 0 mm | - | 263 W/m² | - |
| 1777932416 | 17.78° C | 25% | 1012.7 hPa | 0 mm | - | 195 W/m² | - |
| 1777932114 | 17.78° C | 24% | 1012.5 hPa | 0 mm | - | 182 W/m² | - |
| 1777931810 | 17.78° C | 24% | 1012.6 hPa | 0 mm | - | 187 W/m² | - |
| 1777931508 | 18.33° C | 23% | 1012.6 hPa | 0 mm | - | 191 W/m² | - |
* Rain latest hour (hover to see other rain measurements)
** Current wind speed in m/s (hover to see current wind gust speed)